Starlink 31414

operational
NORAD ID: 59418 Int'l Des: 2024-064 Owner: SPXS Country: US Constellation: starlink
LEOCIRCULAR

Über Starlink 31414

Beschreibung wird geladen...

Live-Position

3D-Globus wird geladen...

Nächste Überflüge

Höhenverlauf

Altitude vs Time

uPlot chart will show altitude changes over time

Zweizeiliger Elementsatz

1 59418U 24064W 25305.71954072 .00000668 00000-0 33802-4 0 9993
2 59418 43.0019 58.9455 0001548 274.9778 85.0897 15.27575014 89656
Epoch: 1. Nov. 2025 • Age: 33 hours

Aktueller Status

Höhe 482.5 km
Geschwindigkeit 7.63 km/s
Subsatellitenpunkt 18.54°N, 5.66°W
Startdatum 5. Apr. 2024
Alter 1.5 years
Typ internet

Technische Details

Klassifizierung Payload
Masse 730.00 kg
Trockenmasse 700.00 kg
Gesamtmasse 730.00 kg
Länge 0.30 m
Durchmesser 4.10 m
Spannweite 29.00 m
Form Box + pan
Hersteller SPXS
Bus-Typ Starlink V2M
Phasenstatus In Orbit
Besitzer/Staat SPXS/US

Große Konstellationen

Loading constellations...